2022/12/20 00:00:00,58.7,-3.9
2022/12/20 00:10:00,58.9,-3.9
2022/12/20 00:20:00,59.0,-3.7
2022/12/20 00:30:00,59.2,-3.7
2022/12/20 00:40:00,59.2,-4.0
2022/12/20 00:50:00,59.0,-4.0
2022/12/20 01:00:00,58.8,-3.4
2022/12/20 01:10:00,58.6,-3.6
2022/12/20 01:20:00,58.6,-3.4
2022/12/20 01:30:00,58.5,-3.4
2022/12/20 01:40:00,58.5,-3.5
2022/12/20 01:50:00,58.4,-3.7
2022/12/20 02:00:00,58.1,-3.6
2022/12/20 02:10:00,57.9,-3.9
2022/12/20 02:20:00,57.8,-3.5
2022/12/20 02:30:00,57.8,-3.2
2022/12/20 02:40:00,57.7,-3.4
2022/12/20 02:50:00,57.6,-3.2
2022/12/20 03:00:00,57.7,-3.5
2022/12/20 03:10:00,57.8,-3.2
2022/12/20 03:20:00,57.8,-3.3
2022/12/20 03:30:00,57.9,-3.6
2022/12/20 03:40:00,58.0,-3.4
2022/12/20 03:50:00,58.0,-3.6
2022/12/20 04:00:00,57.6,-3.6
2022/12/20 04:10:00,57.4,-3.5
2022/12/20 04:20:00,57.3,-3.4
2022/12/20 04:30:00,57.2,-3.2
2022/12/20 04:40:00,57.3,-3.7
2022/12/20 04:50:00,57.1,-3.5
2022/12/20 05:00:00,57.0,-3.3
2022/12/20 05:10:00,56.9,-3.3
2022/12/20 05:20:00,56.8,-3.5
2022/12/20 05:30:00,56.7,-3.4
2022/12/20 05:40:00,56.6,-3.3
2022/12/20 05:50:00,56.7,-3.5
2022/12/20 06:00:00,56.6,-3.5
2022/12/20 06:10:00,56.5,-3.5
2022/12/20 06:20:00,56.2,-2.8
2022/12/20 06:30:00,56.1,-3.7
2022/12/20 06:40:00,55.9,-3.5
2022/12/20 06:50:00,55.9,-3.5
2022/12/20 07:00:00,55.9,-3.2
2022/12/20 07:10:00,55.7,-3.3
2022/12/20 07:20:00,55.6,-3.3
2022/12/20 07:30:00,55.6,-3.3
2022/12/20 07:40:00,55.4,-3.1
2022/12/20 07:50:00,55.2,-3.1
2022/12/20 08:00:00,55.1,-3.2
2022/12/20 08:10:00,55.0,-2.8
2022/12/20 08:20:00,54.8,-2.7
2022/12/20 08:30:00,54.7,-2.9
2022/12/20 08:40:00,54.7,-2.8
2022/12/20 08:50:00,54.5,-2.2
2022/12/20 09:00:00,54.3,-2.0
2022/12/20 09:10:00,54.3,-2.2
2022/12/20 09:20:00,54.2,-1.9
2022/12/20 09:30:00,53.9,-1.2
2022/12/20 09:40:00,53.8,-1.2
2022/12/20 09:50:00,53.7,-1.2
2022/12/20 10:00:00,53.5,-0.6
2022/12/20 10:10:00,53.2,-0.4
2022/12/20 10:20:00,53.1, 0.7
2022/12/20 10:30:00,53.0, 0.0
2022/12/20 10:40:00,52.9, 0.4
2022/12/20 10:50:00,52.7, 1.3
2022/12/20 11:00:00,52.6, 1.5
2022/12/20 11:10:00,52.5, 1.6
2022/12/20 11:20:00,52.4, 1.9
2022/12/20 11:30:00,52.1, 2.8
2022/12/20 11:40:00,52.0, 1.9
2022/12/20 11:50:00,51.8, 2.1
2022/12/20 12:00:00,51.5, 2.3
2022/12/20 12:10:00,51.2, 3.2
2022/12/20 12:20:00,51.0, 2.8
2022/12/20 12:30:00,50.9, 3.3
2022/12/20 12:40:00,50.7, 2.9
2022/12/20 12:50:00,50.4, 2.6
2022/12/20 13:00:00,50.2, 1.4
2022/12/20 13:10:00,50.0, 2.4
2022/12/20 13:20:00,49.8, 3.2
2022/12/20 13:30:00,49.8, 3.0
2022/12/20 13:40:00,49.6, 2.5
2022/12/20 13:50:00,49.3, 2.2
2022/12/20 14:00:00,49.2, 2.0
2022/12/20 14:10:00,48.9, 1.4
2022/12/20 14:20:00,48.8, 1.7
2022/12/20 14:30:00,48.6, 2.4
2022/12/20 14:40:00,48.3, 2.1
2022/12/20 14:50:00,48.1, 1.8
2022/12/20 15:00:00,48.0, 0.7
2022/12/20 15:10:00,47.9,-0.2
2022/12/20 15:20:00,47.9, 0.4
2022/12/20 15:30:00,47.8, 0.0
2022/12/20 15:40:00,47.8,-0.7
2022/12/20 15:50:00,47.7,-0.8
2022/12/20 16:00:00,47.6,-0.4
2022/12/20 16:10:00,47.5,-0.5
2022/12/20 16:20:00,47.3,-0.3
2022/12/20 16:30:00,47.2,-0.4
2022/12/20 16:40:00,47.1,-1.1
2022/12/20 16:50:00,46.9,-1.3
2022/12/20 17:00:00,46.9,-1.2
2022/12/20 17:10:00,46.8,-1.8
2022/12/20 17:20:00,46.7,-2.4
2022/12/20 17:30:00,46.6,-2.7
2022/12/20 17:40:00,46.6,-2.8
2022/12/20 17:50:00,46.6,-3.1
2022/12/20 18:00:00,46.6,-3.2
2022/12/20 18:10:00,46.4,-3.4
2022/12/20 18:20:00,46.3,-3.3
2022/12/20 18:30:00,46.3,-3.8
2022/12/20 18:40:00,46.1,-3.8
2022/12/20 18:50:00,46.0,-4.1
2022/12/20 19:00:00,45.9,-4.0
2022/12/20 19:10:00,45.8,-4.0
2022/12/20 19:20:00,45.5,-4.1
2022/12/20 19:30:00,45.3,-3.8
2022/12/20 19:40:00,45.2,-4.3
2022/12/20 19:50:00,45.1,-4.4
2022/12/20 20:00:00,45.0,-4.0
2022/12/20 20:10:00,45.0,-4.6
2022/12/20 20:20:00,45.0,-4.3
2022/12/20 20:30:00,44.9,-4.5
2022/12/20 20:40:00,44.8,-4.6
2022/12/20 20:50:00,44.6,-4.9
2022/12/20 21:00:00,44.5,-4.8
2022/12/20 21:10:00,44.5,-4.8
2022/12/20 21:20:00,44.6,-4.8
2022/12/20 21:30:00,44.6,-4.8
2022/12/20 21:40:00,44.5,-4.8
2022/12/20 21:50:00,44.5,-4.9
2022/12/20 22:00:00,44.5,-5.1
2022/12/20 22:10:00,44.4,-5.3
2022/12/20 22:20:00,44.4,-5.3
2022/12/20 22:30:00,44.3,-4.9
2022/12/20 22:40:00,44.2,-5.2
2022/12/20 22:50:00,44.2,-5.7
2022/12/20 23:00:00,44.1,-5.4
2022/12/20 23:10:00,44.1,-5.0
2022/12/20 23:20:00,44.0,-4.8
2022/12/20 23:30:00,44.0,-4.8
2022/12/20 23:40:00,43.9,-4.8
2022/12/20 23:50:00,43.8,-4.6
